Flag for U.S.A. Weather past 2 weeks in Bristol, Tennessee, U.S.A.

Now
55 °F

Clear.


Feels Like: 55 °F
Forecast: 48 / 67 °F
Wind: 3 mph from Southwest

Location: Abingdon-Southwest Abingdon

Current Time: Oct 25, 2014 at 10:03:54 PM

Latest Report: Oct 25, 2014 at 9:35 PM


Visibility: 10 mi

Pressure: 30.01 "Hg

Humidity: 78%

Dew point: 48 °F

Location of BristolLocation

Historic Weather in Bristol — Graph

°F

Bristol temperature yesterday

Maximum temperature yesterday: 64 °F (at 4:35 PM)
Minimum temperature yesterday: 37 °F (at 4:15 AM)
Average temperature yesterday: 48 °F

Past Weeks' High & Low Weather Summary

 TemperatureHumidityPressure
High77 °F (Oct 13, 1:15 PM)100% (Oct 10, 8:15 PM)30.23 "Hg (Oct 10, 8:15 PM)
Low36 °F (Oct 25, 7:35 AM)33% (Oct 24, 4:55 PM)29.76 "Hg (Oct 14, 4:55 PM)
Average56 °F80%30.03 "Hg
* Reported Oct 10 8:15 PM — Oct 25 8:55 PM, Bristol, Weather by CustomWeather, © 2014

Note: Actual official high and low records may vary slightly from our data, if they occured in-between our weather recording intervals... More about our weather records

Advertising

Bristol weather history for previous 24 hours

 ConditionsComfort  
Time TempWeatherWind HumidityBarometerVisibility
8:55 PM
Oct 25
58 °FPassing clouds.5 mph70%30.03 "Hg10 mi
8:35 PM57 °FClear.No wind71%30.02 "Hg10 mi
8:15 PM58 °FPassing clouds.3 mph69%30.02 "Hg10 mi
7:55 PM58 °FPassing clouds.No wind68%30.02 "Hg10 mi
7:15 PM61 °FScattered clouds.3 mph61%30.02 "Hg10 mi
6:55 PM62 °FPartly sunny.3 mph59%30.01 "Hg10 mi
6:15 PM64 °FScattered clouds.5 mph55%30.01 "Hg10 mi
5:55 PM65 °FPartly sunny.7 mph53%30.01 "Hg10 mi
5:15 PM66 °FBroken clouds.8 mph52%30.01 "Hg10 mi
4:55 PM67 °FScattered clouds.7 mph49%30.02 "Hg10 mi
4:35 PM67 °FScattered clouds.6 mph50%30.02 "Hg10 mi
4:15 PM67 °FBroken clouds.8 mph49%30.01 "Hg10 mi
3:55 PM67 °FScattered clouds.7 mph51%30.02 "Hg10 mi
3:35 PM66 °FSunny.7 mph53%30.01 "Hg10 mi
3:15 PM65 °FSunny.8 mph54%30.02 "Hg10 mi
2:55 PM65 °FSunny.7 mph55%30.02 "Hg10 mi
2:15 PM64 °FSunny.6 mph54%30.04 "Hg10 mi
1:55 PM63 °FSunny.9 mph54%30.06 "Hg10 mi
1:35 PM62 °FSunny.9 mph57%30.06 "Hg10 mi
1:15 PM62 °FSunny.6 mph58%30.08 "Hg10 mi
12:55 PM61 °FSunny.9 mph57%30.09 "Hg10 mi
12:35 PM60 °FSunny.7 mph60%30.09 "Hg10 mi
12:15 PM59 °FSunny.9 mph60%30.09 "Hg10 mi
11:55 AM58 °FSunny.9 mph61%30.10 "Hg10 mi
11:35 AM57 °FSunny.6 mph66%30.10 "Hg10 mi
11:15 AM56 °FSunny.6 mph67%30.10 "Hg10 mi
10:55 AM55 °FSunny.8 mph69%30.11 "Hg10 mi
10:35 AM54 °FSunny.6 mph73%30.11 "Hg10 mi
10:15 AM51 °FSunny.3 mph77%30.11 "Hg10 mi
9:55 AM48 °FSunny.No wind83%30.11 "Hg10 mi
9:15 AM44 °FSunny.No wind93%30.11 "Hg10 mi
8:55 AM40 °FSunny.No wind97%30.10 "Hg10 mi
8:35 AM38 °FClear.No wind97%30.10 "Hg10 mi
8:15 AM38 °FClear.No wind97%30.10 "Hg10 mi
7:55 AM36 °FClear.No wind97%30.10 "Hg10 mi
7:35 AM36 °FClear.No wind97%30.10 "Hg10 mi
7:15 AM37 °FClear.No wind98%30.10 "Hg10 mi
6:55 AM37 °FClear.No wind97%30.09 "Hg7 mi
6:35 AM37 °FClear.No wind97%30.09 "Hg7 mi
6:15 AM37 °FClear.No wind97%30.09 "Hg10 mi
5:55 AM37 °FClear.3 mph97%30.09 "Hg10 mi
5:15 AM38 °FClear.No wind94%30.07 "Hg7 mi
4:55 AM38 °FClear.No wind97%30.07 "Hg10 mi
4:35 AM38 °FClear.No wind95%30.07 "Hg10 mi
4:15 AM38 °FClear.No wind94%30.07 "Hg10 mi
3:55 AM38 °FClear.No wind94%30.08 "Hg10 mi
3:35 AM39 °FClear.No wind94%30.08 "Hg10 mi
3:15 AM38 °FClear.No wind93%30.08 "Hg10 mi
2:55 AM39 °FClear.No wind94%30.09 "Hg10 mi
2:15 AM40 °FClear.No wind91%30.08 "Hg10 mi
1:55 AM41 °FClear.No wind90%30.09 "Hg10 mi
1:35 AM41 °FClear.No wind93%30.09 "Hg10 mi
1:15 AM41 °FClear.No wind92%30.08 "Hg10 mi
12:55 AM41 °FClear.No wind89%30.08 "Hg10 mi
12:35 AM42 °FClear.No wind88%30.09 "Hg10 mi
12:15 AM43 °FClear.No wind88%30.09 "Hg10 mi
11:55 PM
Oct 24
43 °FClear.No wind86%30.09 "Hg10 mi
11:15 PM43 °FClear.No wind86%30.08 "Hg10 mi
10:55 PM44 °FClear.No wind87%30.07 "Hg10 mi
10:15 PM45 °FClear.No wind83%30.08 "Hg10 mi
Weather by CustomWeather, © 2014

See weather overviewHow to use our weather pages